This is the latest recevied weather packets stored in our database for station/object IZ1UQG-1. If no packets are shown the sender has not sent any weather packets the latest 10 day(s).
| Time | Temp. | Humidity | Pressure | Rain* | Wind** | Luminosity | Snow |
|---|---|---|---|---|---|---|---|
| 1778102032 | 13.33° C | 82% | 1011.7 hPa | 177.55 mm | - | - | - |
| 1778101733 | 13.89° C | 81% | 1011.7 hPa | 167.64 mm | - | - | - |
| 1778101432 | 13.89° C | 81% | 1011.7 hPa | 163.07 mm | - | - | - |
| 1778101132 | 13.89° C | 81% | 1011.6 hPa | 151.13 mm | - | - | - |
| 1778100832 | 13.89° C | 81% | 1011.4 hPa | 159 mm | - | - | - |
| 1778100532 | 13.89° C | 81% | 1011.3 hPa | 151.64 mm | - | - | - |
| 1778100232 | 13.89° C | 81% | 1011.6 hPa | 146.05 mm | - | - | - |
| 1778099932 | 13.89° C | 81% | 1011.6 hPa | 154.18 mm | - | - | - |
| 1778099632 | 13.89° C | 81% | 1011.5 hPa | 143.26 mm | - | - | - |
| 1778099332 | 13.89° C | 81% | 1011.4 hPa | 145.03 mm | - | - | - |
| 1778099032 | 13.89° C | 81% | 1011.5 hPa | 142.75 mm | - | - | - |
| 1778098732 | 13.89° C | 81% | 1011.2 hPa | 127.25 mm | - | - | - |
| 1778098432 | 13.89° C | 81% | 1011.1 hPa | 129.29 mm | - | - | - |
| 1778098132 | 13.89° C | 81% | 1011 hPa | 135.13 mm | - | - | - |
| 1778097832 | 13.89° C | 81% | 1011 hPa | 138.68 mm | - | - | - |
| 1778097532 | 14.44° C | 81% | 1010.9 hPa | 122.17 mm | - | - | - |
| 1778097232 | 14.44° C | 80% | 1011 hPa | 143.76 mm | - | - | - |
| 1778096932 | 14.44° C | 80% | 1010.9 hPa | 140.72 mm | - | - | - |
| 1778096633 | 14.44° C | 80% | 1010.8 hPa | 148.59 mm | - | - | - |
| 1778096332 | 14.44° C | 80% | 1010.7 hPa | 144.27 mm | - | - | - |
| 1778096033 | 14.44° C | 80% | 1010.6 hPa | 164.08 mm | - | - | - |
| 1778095732 | 14.44° C | 80% | 1010.5 hPa | 153.16 mm | - | - | - |
| 1778095432 | 14.44° C | 80% | 1010.3 hPa | 155.7 mm | - | - | - |
| 1778095133 | 15° C | 80% | 1010.4 hPa | 197.87 mm | - | - | - |
| 1778094832 | 15° C | 80% | 1010.2 hPa | 189.99 mm | - | - | - |
* Rain latest hour (hover to see other rain measurements)
** Current wind speed in m/s (hover to see current wind gust speed)